Year,Month,Day,Hour,Minute,Value (Times are PST for temperature in C)
2009,07,17,00,00,17.60
2009,07,17,00,01,17.60
2009,07,17,00,02,17.60
2009,07,17,00,03,17.60
2009,07,17,00,04,17.50
2009,07,17,00,05,17.50
2009,07,17,00,06,17.50
2009,07,17,00,07,17.40
2009,07,17,00,08,17.40
2009,07,17,00,09,17.40
2009,07,17,00,10,17.40
2009,07,17,00,11,17.40
2009,07,17,00,12,17.30
2009,07,17,00,13,17.30
2009,07,17,00,14,17.30
2009,07,17,00,15,17.30
2009,07,17,00,16,17.20
2009,07,17,00,17,17.20
2009,07,17,00,18,17.20
2009,07,17,00,19,17.10
2009,07,17,00,20,17.10
2009,07,17,00,21,17.10
2009,07,17,00,22,17.10
2009,07,17,00,23,17.00
2009,07,17,00,24,17.00
2009,07,17,00,25,17.00
2009,07,17,00,26,17.00
2009,07,17,00,27,17.00
2009,07,17,00,28,17.00
2009,07,17,00,29,16.90
2009,07,17,00,30,16.90
2009,07,17,00,31,16.90
2009,07,17,00,32,16.90
2009,07,17,00,33,16.90
2009,07,17,00,34,16.90
2009,07,17,00,35,16.90
2009,07,17,00,36,16.90
2009,07,17,00,37,16.90
2009,07,17,00,38,16.90
2009,07,17,00,39,16.90
2009,07,17,00,40,16.90
2009,07,17,00,41,16.90
2009,07,17,00,42,16.80
2009,07,17,00,43,16.80
2009,07,17,00,44,16.80
2009,07,17,00,45,16.80
2009,07,17,00,46,16.80
2009,07,17,00,47,16.80
2009,07,17,00,48,16.80
2009,07,17,00,49,16.80
2009,07,17,00,50,16.80
2009,07,17,00,51,16.80
2009,07,17,00,52,16.80
2009,07,17,00,53,16.80
2009,07,17,00,54,16.80
2009,07,17,00,55,16.80
2009,07,17,00,56,16.80
2009,07,17,00,57,16.80
2009,07,17,00,58,16.80
2009,07,17,00,59,16.70
2009,07,17,01,00,16.70
2009,07,17,01,01,16.60
2009,07,17,01,02,16.50
2009,07,17,01,03,16.40
2009,07,17,01,04,16.40
2009,07,17,01,05,16.30
2009,07,17,01,06,16.30
2009,07,17,01,07,16.30
2009,07,17,01,08,16.30
2009,07,17,01,09,16.30
2009,07,17,01,10,16.20
2009,07,17,01,11,16.20
2009,07,17,01,12,16.20
2009,07,17,01,13,16.20
2009,07,17,01,14,16.20
2009,07,17,01,15,16.20
2009,07,17,01,16,16.20
2009,07,17,01,17,16.20
2009,07,17,01,18,16.20
2009,07,17,01,19,16.20
2009,07,17,01,20,16.20
2009,07,17,01,21,16.20
2009,07,17,01,22,16.20
2009,07,17,01,23,16.20
2009,07,17,01,24,16.20
2009,07,17,01,25,16.20
2009,07,17,01,26,16.20
2009,07,17,01,27,16.20
2009,07,17,01,28,16.20
2009,07,17,01,29,16.20
2009,07,17,01,30,16.20
2009,07,17,01,31,16.20
2009,07,17,01,32,16.20
2009,07,17,01,33,16.20
2009,07,17,01,34,16.20
2009,07,17,01,35,16.20
2009,07,17,01,36,16.20
2009,07,17,01,37,16.20
2009,07,17,01,38,16.20
2009,07,17,01,39,16.20
2009,07,17,01,40,16.20
2009,07,17,01,41,16.20
2009,07,17,01,42,16.20
2009,07,17,01,43,16.20
2009,07,17,01,44,16.20
2009,07,17,01,45,16.30
2009,07,17,01,46,16.30
2009,07,17,01,47,16.30
2009,07,17,01,48,16.20
2009,07,17,01,49,16.20
2009,07,17,01,50,16.20
2009,07,17,01,51,16.20
2009,07,17,01,52,16.10
2009,07,17,01,53,16.10
2009,07,17,01,54,16.10
2009,07,17,01,55,16.10
2009,07,17,01,56,16.00
2009,07,17,01,57,16.00
2009,07,17,01,58,15.90
2009,07,17,01,59,15.90
2009,07,17,02,00,15.90
2009,07,17,02,01,15.90
2009,07,17,02,02,15.90
2009,07,17,02,03,15.90
2009,07,17,02,04,15.80
2009,07,17,02,05,15.80
2009,07,17,02,06,15.80
2009,07,17,02,07,15.80
2009,07,17,02,08,15.80
2009,07,17,02,09,15.80
2009,07,17,02,10,15.90
2009,07,17,02,11,15.90
2009,07,17,02,12,15.90
2009,07,17,02,13,15.90
2009,07,17,02,14,15.90
2009,07,17,02,15,15.90
2009,07,17,02,16,15.90
2009,07,17,02,17,15.90
2009,07,17,02,18,15.80
2009,07,17,02,19,15.80
2009,07,17,02,20,15.80
2009,07,17,02,21,15.80
2009,07,17,02,22,15.80
2009,07,17,02,23,15.80
2009,07,17,02,24,15.80
2009,07,17,02,25,15.80
2009,07,17,02,26,15.80
2009,07,17,02,27,15.80
2009,07,17,02,28,15.80
2009,07,17,02,29,15.80
2009,07,17,02,30,15.80
2009,07,17,02,31,15.80
2009,07,17,02,32,15.80
2009,07,17,02,33,15.70
2009,07,17,02,34,15.70
2009,07,17,02,35,15.70
2009,07,17,02,36,15.70
2009,07,17,02,37,15.70
2009,07,17,02,38,15.70
2009,07,17,02,39,15.70
2009,07,17,02,40,15.70
2009,07,17,02,41,15.70
2009,07,17,02,42,15.70
2009,07,17,02,43,15.70
2009,07,17,02,44,15.60
2009,07,17,02,45,15.60
2009,07,17,02,46,15.60
2009,07,17,02,47,15.60
2009,07,17,02,48,15.60
2009,07,17,02,49,15.60
2009,07,17,02,50,15.60
2009,07,17,02,51,15.50
2009,07,17,02,52,15.50
2009,07,17,02,53,15.50
2009,07,17,02,54,15.50
2009,07,17,02,55,15.50
2009,07,17,02,56,15.40
2009,07,17,02,57,15.40
2009,07,17,02,58,15.40
2009,07,17,02,59,15.40
2009,07,17,03,00,15.40
2009,07,17,03,01,15.40
2009,07,17,03,02,15.40
2009,07,17,03,03,15.40
2009,07,17,03,04,15.40
2009,07,17,03,05,15.40
2009,07,17,03,06,15.40
2009,07,17,03,07,15.40
2009,07,17,03,08,15.40
2009,07,17,03,09,15.40
2009,07,17,03,10,15.40
2009,07,17,03,11,15.40
2009,07,17,03,12,15.50
2009,07,17,03,13,15.50
2009,07,17,03,14,15.50
2009,07,17,03,15,15.50
2009,07,17,03,16,15.50
2009,07,17,03,17,15.50
2009,07,17,03,18,15.50
2009,07,17,03,19,15.50
2009,07,17,03,20,15.50
2009,07,17,03,21,15.50
2009,07,17,03,22,15.50
2009,07,17,03,23,15.50
2009,07,17,03,24,15.50
2009,07,17,03,25,15.50
2009,07,17,03,26,15.50
2009,07,17,03,27,15.50
2009,07,17,03,28,15.50
2009,07,17,03,29,15.50
2009,07,17,03,30,15.50
2009,07,17,03,31,15.50
2009,07,17,03,32,15.50
2009,07,17,03,33,15.50
2009,07,17,03,34,15.50
2009,07,17,03,35,15.50
2009,07,17,03,36,15.50
2009,07,17,03,37,15.50
2009,07,17,03,38,15.50
2009,07,17,03,39,15.50
2009,07,17,03,40,15.50
2009,07,17,03,41,15.50
2009,07,17,03,42,15.50
2009,07,17,03,43,15.40
2009,07,17,03,44,15.40
2009,07,17,03,45,15.40
2009,07,17,03,46,15.40
2009,07,17,03,47,15.40
2009,07,17,03,48,15.30
2009,07,17,03,49,15.30
2009,07,17,03,50,15.30
2009,07,17,03,51,15.20
2009,07,17,03,52,15.20
2009,07,17,03,53,15.20
2009,07,17,03,54,15.20
2009,07,17,03,55,15.20
2009,07,17,03,56,15.20
2009,07,17,03,57,15.20
2009,07,17,03,58,15.30
2009,07,17,03,59,15.30
2009,07,17,04,00,15.30
2009,07,17,04,01,15.30
2009,07,17,04,02,15.30
2009,07,17,04,03,15.30
2009,07,17,04,04,15.30
2009,07,17,04,05,15.30
2009,07,17,04,06,15.20
2009,07,17,04,07,15.20
2009,07,17,04,08,15.20
2009,07,17,04,09,15.20
2009,07,17,04,10,15.20
2009,07,17,04,11,15.20
2009,07,17,04,12,15.10
2009,07,17,04,13,15.10
2009,07,17,04,14,15.10
2009,07,17,04,15,15.10
2009,07,17,04,16,15.10
2009,07,17,04,17,15.00
2009,07,17,04,18,15.00
2009,07,17,04,19,15.00
2009,07,17,04,20,15.00
2009,07,17,04,21,15.00
2009,07,17,04,22,15.00
2009,07,17,04,23,15.00
2009,07,17,04,24,15.00
2009,07,17,04,25,15.00
2009,07,17,04,26,15.00
2009,07,17,04,27,15.00
2009,07,17,04,28,15.00
2009,07,17,04,29,15.00
2009,07,17,04,30,15.00
2009,07,17,04,31,15.00
2009,07,17,04,32,15.00
2009,07,17,04,33,15.00
2009,07,17,04,34,15.00
2009,07,17,04,35,15.00
2009,07,17,04,36,15.00
2009,07,17,04,37,15.00
2009,07,17,04,38,15.00
2009,07,17,04,39,15.00
2009,07,17,04,40,15.00
2009,07,17,04,41,15.00
2009,07,17,04,42,15.00
2009,07,17,04,43,15.00
2009,07,17,04,44,15.00
2009,07,17,04,45,15.00
2009,07,17,04,46,15.00
2009,07,17,04,47,15.00
2009,07,17,04,48,15.00
2009,07,17,04,49,15.00
2009,07,17,04,50,15.00
2009,07,17,04,51,14.90
2009,07,17,04,52,14.90
2009,07,17,04,53,14.90
2009,07,17,04,54,14.90
2009,07,17,04,55,14.90
2009,07,17,04,56,14.80
2009,07,17,04,57,14.80
2009,07,17,04,58,14.80
2009,07,17,04,59,14.80
2009,07,17,05,00,14.80
2009,07,17,05,01,14.80
2009,07,17,05,02,14.70
2009,07,17,05,03,14.70
2009,07,17,05,04,14.70
2009,07,17,05,05,14.70
2009,07,17,05,06,14.70
2009,07,17,05,07,14.70
2009,07,17,05,08,14.70
2009,07,17,05,09,14.70
2009,07,17,05,10,14.70
2009,07,17,05,11,14.70
2009,07,17,05,12,14.70
2009,07,17,05,13,14.70
2009,07,17,05,14,14.70
2009,07,17,05,15,14.60
2009,07,17,05,16,14.60
2009,07,17,05,17,14.50
2009,07,17,05,18,14.50
2009,07,17,05,19,14.40
2009,07,17,05,20,14.40
2009,07,17,05,21,14.40
2009,07,17,05,22,14.40
2009,07,17,05,23,14.40
2009,07,17,05,24,14.30
2009,07,17,05,25,14.30
2009,07,17,05,26,14.30
2009,07,17,05,27,14.30
2009,07,17,05,28,14.30
2009,07,17,05,29,14.30
2009,07,17,05,30,14.30
2009,07,17,05,31,14.30
2009,07,17,05,32,14.30
2009,07,17,05,33,14.30
2009,07,17,05,34,14.30
2009,07,17,05,35,14.30
2009,07,17,05,36,14.30
2009,07,17,05,37,14.30
2009,07,17,05,38,14.20
2009,07,17,05,39,14.20
2009,07,17,05,40,14.20
2009,07,17,05,41,14.20
2009,07,17,05,42,14.10
2009,07,17,05,43,14.10
2009,07,17,05,44,14.10
2009,07,17,05,45,14.10
2009,07,17,05,46,14.00
2009,07,17,05,47,14.00
2009,07,17,05,48,13.90
2009,07,17,05,49,13.90
2009,07,17,05,50,13.90
2009,07,17,05,51,13.90
2009,07,17,05,52,13.90
2009,07,17,05,53,13.90
2009,07,17,05,54,13.90
2009,07,17,05,55,13.90
2009,07,17,05,56,13.90
2009,07,17,05,57,13.90
2009,07,17,05,58,13.90
2009,07,17,05,59,14.00
2009,07,17,06,00,14.00
2009,07,17,06,01,14.10
2009,07,17,06,02,14.10
2009,07,17,06,03,14.10
2009,07,17,06,04,14.10
2009,07,17,06,05,14.10
2009,07,17,06,06,14.10
2009,07,17,06,07,14.10
2009,07,17,06,08,14.10
2009,07,17,06,09,14.10
2009,07,17,06,10,14.10
2009,07,17,06,11,14.10
2009,07,17,06,12,14.10
2009,07,17,06,13,14.10
2009,07,17,06,14,14.20
2009,07,17,06,15,14.20
2009,07,17,06,16,14.20
2009,07,17,06,17,14.20
2009,07,17,06,18,14.20
2009,07,17,06,19,14.30
2009,07,17,06,20,14.30
2009,07,17,06,21,14.30
2009,07,17,06,22,14.30
2009,07,17,06,23,14.40
2009,07,17,06,24,14.40
2009,07,17,06,25,14.50
2009,07,17,06,26,14.50
2009,07,17,06,27,14.60
2009,07,17,06,28,14.60
2009,07,17,06,29,14.70
2009,07,17,06,30,14.70
2009,07,17,06,31,14.80
2009,07,17,06,32,14.90
2009,07,17,06,33,15.00
2009,07,17,06,34,15.00
2009,07,17,06,35,15.00
2009,07,17,06,36,15.10
2009,07,17,06,37,15.20
2009,07,17,06,38,15.30
2009,07,17,06,39,15.30
2009,07,17,06,40,15.40
2009,07,17,06,41,15.40
2009,07,17,06,42,15.50
2009,07,17,06,43,15.60
2009,07,17,06,44,15.60
2009,07,17,06,45,15.70
2009,07,17,06,46,15.70
2009,07,17,06,47,15.80
2009,07,17,06,48,15.80
2009,07,17,06,49,15.80
2009,07,17,06,50,15.90
2009,07,17,06,51,15.90
2009,07,17,06,52,16.00
2009,07,17,06,53,16.10
2009,07,17,06,54,16.10
2009,07,17,06,55,16.20
2009,07,17,06,56,16.20
2009,07,17,06,57,16.20
2009,07,17,06,58,16.30
2009,07,17,06,59,16.30
2009,07,17,07,00,16.40
2009,07,17,07,01,16.50
2009,07,17,07,02,16.50
2009,07,17,07,03,16.60
2009,07,17,07,04,16.60
2009,07,17,07,05,16.60
2009,07,17,07,06,16.70
2009,07,17,07,07,16.70
2009,07,17,07,08,16.80
2009,07,17,07,09,16.80
2009,07,17,07,10,16.90
2009,07,17,07,11,16.90
2009,07,17,07,12,17.00
2009,07,17,07,13,17.10
2009,07,17,07,14,17.10
2009,07,17,07,15,17.10
2009,07,17,07,16,17.20
2009,07,17,07,17,17.20
2009,07,17,07,18,17.30
2009,07,17,07,19,17.30
2009,07,17,07,20,17.30
2009,07,17,07,21,17.40
2009,07,17,07,22,17.40
2009,07,17,07,23,17.40
2009,07,17,07,24,17.50
2009,07,17,07,25,17.50
2009,07,17,07,26,17.60
2009,07,17,07,27,17.60
2009,07,17,07,28,17.60
2009,07,17,07,29,17.70
2009,07,17,07,30,17.70
2009,07,17,07,31,17.70
2009,07,17,07,32,17.80
2009,07,17,07,33,17.80
2009,07,17,07,34,17.90
2009,07,17,07,35,17.90
2009,07,17,07,36,17.90
2009,07,17,07,37,18.00
2009,07,17,07,38,18.00
2009,07,17,07,39,18.10
2009,07,17,07,40,18.10
2009,07,17,07,41,18.20
2009,07,17,07,42,18.20
2009,07,17,07,43,18.30
2009,07,17,07,44,18.40
2009,07,17,07,45,18.50
2009,07,17,07,46,18.60
2009,07,17,07,47,18.70
2009,07,17,07,48,18.80
2009,07,17,07,49,18.90
2009,07,17,07,50,19.00
2009,07,17,07,51,19.10
2009,07,17,07,52,19.10
2009,07,17,07,53,19.20
2009,07,17,07,54,19.20
2009,07,17,07,55,19.30
2009,07,17,07,56,19.30
2009,07,17,07,57,19.30
2009,07,17,07,58,19.30
2009,07,17,07,59,19.30
2009,07,17,08,00,19.30
2009,07,17,08,01,19.40
2009,07,17,08,02,19.40
2009,07,17,08,03,19.50
2009,07,17,08,04,19.50
2009,07,17,08,05,19.60
2009,07,17,08,06,19.60
2009,07,17,08,07,19.70
2009,07,17,08,08,19.90
2009,07,17,08,09,20.00
2009,07,17,08,10,20.10
2009,07,17,08,11,20.10
2009,07,17,08,12,20.10
2009,07,17,08,13,20.10
2009,07,17,08,14,20.10
2009,07,17,08,15,20.10
2009,07,17,08,16,20.10
2009,07,17,08,17,20.20
2009,07,17,08,18,20.20
2009,07,17,08,19,20.20
2009,07,17,08,20,20.20
2009,07,17,08,21,20.20
2009,07,17,08,22,20.20
2009,07,17,08,23,20.30
2009,07,17,08,24,20.30
2009,07,17,08,25,20.30
2009,07,17,08,26,20.40
2009,07,17,08,27,20.40
2009,07,17,08,28,20.50
2009,07,17,08,29,20.50
2009,07,17,08,30,20.50
2009,07,17,08,31,20.50
2009,07,17,08,32,20.60
2009,07,17,08,33,20.60
2009,07,17,08,34,20.60
2009,07,17,08,35,20.70
2009,07,17,08,36,20.80
2009,07,17,08,37,20.80
2009,07,17,08,38,20.90
2009,07,17,08,39,21.00
2009,07,17,08,40,21.10
2009,07,17,08,41,21.20
2009,07,17,08,42,21.30
2009,07,17,08,43,21.40
2009,07,17,08,44,21.40
2009,07,17,08,45,21.40
2009,07,17,08,46,21.40
2009,07,17,08,47,21.40
2009,07,17,08,48,21.40
2009,07,17,08,49,21.40
2009,07,17,08,50,21.40
2009,07,17,08,51,21.50
2009,07,17,08,52,21.50
2009,07,17,08,53,21.60
2009,07,17,08,54,21.60
2009,07,17,08,55,21.60
2009,07,17,08,56,21.60
2009,07,17,08,57,21.60
2009,07,17,08,58,21.70
2009,07,17,08,59,21.70
2009,07,17,09,00,21.80
2009,07,17,09,01,21.80
2009,07,17,12,48,25.40
2009,07,17,12,49,25.40
2009,07,17,12,50,25.60
2009,07,17,12,51,25.60
2009,07,17,12,52,25.70
2009,07,17,12,53,25.70
2009,07,17,12,54,25.60
2009,07,17,12,55,25.60
2009,07,17,12,56,25.50
2009,07,17,12,57,25.40
2009,07,17,12,58,25.30
2009,07,17,12,59,25.40
2009,07,17,13,00,25.50
2009,07,17,13,01,25.60
2009,07,17,13,02,25.70
2009,07,17,13,03,25.70
2009,07,17,13,04,25.70
2009,07,17,13,05,25.70
2009,07,17,13,06,25.80
2009,07,17,13,07,25.90
2009,07,17,13,08,25.90
2009,07,17,13,09,26.00
2009,07,17,13,10,26.00
2009,07,17,13,11,26.00
2009,07,17,13,12,26.10
2009,07,17,13,13,26.10
2009,07,17,13,14,26.20
2009,07,17,13,15,26.30
2009,07,17,13,16,26.40
2009,07,17,13,17,26.30
2009,07,17,13,18,26.40
2009,07,17,13,19,26.50
2009,07,17,13,20,26.60
2009,07,17,13,21,26.50
2009,07,17,13,22,26.40
2009,07,17,13,23,26.30
2009,07,17,13,24,26.30
2009,07,17,13,25,26.30
2009,07,17,13,26,26.30
2009,07,17,13,27,26.30
2009,07,17,13,28,26.30
2009,07,17,13,29,26.30
2009,07,17,13,30,26.30
2009,07,17,13,31,26.20
2009,07,17,13,32,26.10
2009,07,17,13,33,26.10
2009,07,17,13,34,26.00
2009,07,17,13,35,26.10
2009,07,17,13,36,26.10
2009,07,17,13,37,26.10
2009,07,17,13,38,26.10
2009,07,17,13,39,26.20
2009,07,17,13,40,26.20
2009,07,17,13,41,26.10
2009,07,17,13,42,25.90
2009,07,17,13,43,25.80
2009,07,17,13,44,25.60
2009,07,17,13,45,25.60
2009,07,17,13,46,25.50
2009,07,17,13,47,25.50
2009,07,17,13,48,25.60
2009,07,17,13,49,25.60
2009,07,17,13,50,25.60
2009,07,17,13,51,25.60
2009,07,17,13,52,25.70
2009,07,17,13,53,25.80
2009,07,17,13,54,25.80
2009,07,17,13,55,25.80
2009,07,17,13,56,25.80
2009,07,17,13,57,25.80
2009,07,17,13,58,25.70
2009,07,17,13,59,25.70
2009,07,17,14,00,25.70
2009,07,17,14,01,25.80
2009,07,17,14,02,25.90
2009,07,17,14,03,26.00
2009,07,17,14,04,26.00
2009,07,17,14,05,25.90
2009,07,17,14,06,26.00
2009,07,17,14,07,26.10
2009,07,17,14,08,26.10
2009,07,17,14,09,26.10
2009,07,17,14,10,26.20
2009,07,17,14,11,26.20
2009,07,17,14,12,26.20
2009,07,17,14,13,26.20
2009,07,17,14,14,26.30
2009,07,17,14,15,26.30
2009,07,17,14,16,26.40
2009,07,17,14,17,26.50
2009,07,17,14,18,26.60
2009,07,17,14,19,26.70
2009,07,17,14,20,26.80
2009,07,17,14,23,26.90
2009,07,17,14,24,27.00
2009,07,17,14,26,27.20
2009,07,17,14,27,27.20
2009,07,17,14,28,27.20
2009,07,17,14,29,27.20
2009,07,17,14,30,27.20
2009,07,17,14,31,27.20
2009,07,17,14,32,27.30
2009,07,17,14,33,27.20
2009,07,17,14,34,27.30
2009,07,17,14,35,27.20
2009,07,17,14,36,27.30
2009,07,17,14,37,27.20
2009,07,17,14,38,27.20
2009,07,17,14,39,27.30
2009,07,17,14,40,27.40
2009,07,17,14,41,27.50
2009,07,17,14,42,27.50
2009,07,17,14,43,27.60
2009,07,17,14,44,27.60
2009,07,17,14,45,27.50
2009,07,17,14,46,27.40
2009,07,17,14,47,27.40
2009,07,17,14,48,27.30
2009,07,17,14,49,27.30
2009,07,17,14,50,27.30
2009,07,17,14,51,27.40
2009,07,17,14,52,27.40
2009,07,17,14,53,27.50
2009,07,17,14,54,27.50
2009,07,17,14,55,27.40
2009,07,17,14,56,27.30
2009,07,17,14,57,27.20
2009,07,17,14,58,27.20
2009,07,17,14,59,27.20
2009,07,17,15,00,27.10
2009,07,17,15,01,27.10
2009,07,17,15,02,27.10
2009,07,17,15,03,27.10
2009,07,17,15,04,27.10
2009,07,17,15,05,27.10
2009,07,17,15,06,27.20
2009,07,17,15,07,27.10
2009,07,17,15,08,27.10
2009,07,17,15,09,27.10
2009,07,17,15,10,27.20
2009,07,17,15,11,27.20
2009,07,17,15,12,27.30
2009,07,17,15,13,27.50
2009,07,17,15,14,27.60
2009,07,17,15,15,27.60
2009,07,17,15,16,27.60
2009,07,17,15,17,27.60
2009,07,17,15,18,27.70
2009,07,17,15,19,27.80
2009,07,17,15,20,27.90
2009,07,17,15,21,27.90
2009,07,17,15,22,27.90
2009,07,17,15,23,27.80
2009,07,17,15,24,27.80
2009,07,17,15,25,27.80
2009,07,17,15,26,27.80
2009,07,17,15,27,27.70
2009,07,17,15,28,27.70
2009,07,17,15,29,27.70
2009,07,17,15,30,27.70
2009,07,17,15,31,27.70
2009,07,17,15,32,27.70
2009,07,17,15,33,27.70
2009,07,17,15,34,27.80
2009,07,17,15,35,27.80
2009,07,17,15,36,27.80
2009,07,17,15,37,27.70
2009,07,17,15,38,27.70
2009,07,17,15,39,27.50
2009,07,17,15,40,27.50
2009,07,17,15,41,27.40
2009,07,17,15,42,27.30
2009,07,17,15,43,27.30
2009,07,17,15,44,27.20
2009,07,17,15,45,27.10
2009,07,17,15,46,27.20
2009,07,17,15,47,27.30
2009,07,17,15,48,27.30
2009,07,17,15,49,27.40
2009,07,17,15,50,27.40
2009,07,17,15,51,27.40
2009,07,17,15,52,27.50
2009,07,17,15,53,27.60
2009,07,17,15,54,27.70
2009,07,17,15,55,27.80
2009,07,17,15,56,27.80
2009,07,17,15,57,27.90
2009,07,17,15,58,27.90
2009,07,17,15,59,28.00
2009,07,17,16,00,28.10
2009,07,17,16,01,28.00
2009,07,17,16,02,27.90
2009,07,17,16,03,27.80
2009,07,17,16,04,27.70
2009,07,17,16,05,27.70
2009,07,17,16,06,27.50
2009,07,17,16,07,27.40
2009,07,17,16,08,27.30
2009,07,17,16,09,27.30
2009,07,17,16,10,27.30
2009,07,17,16,11,27.40
2009,07,17,16,12,27.50
2009,07,17,16,13,27.60
2009,07,17,16,14,27.80
2009,07,17,16,15,27.90
2009,07,17,16,16,28.00
2009,07,17,16,17,28.10
2009,07,17,16,18,28.20
2009,07,17,16,19,28.40
2009,07,17,16,20,28.60
2009,07,17,16,21,28.80
2009,07,17,16,22,28.90
2009,07,17,16,23,29.00
2009,07,17,16,24,29.10
2009,07,17,16,25,29.20
2009,07,17,16,26,29.20
2009,07,17,16,27,29.20
2009,07,17,16,28,29.20
2009,07,17,16,29,29.20
2009,07,17,16,30,29.20
2009,07,17,16,31,29.30
2009,07,17,16,32,29.30
2009,07,17,16,33,29.30
2009,07,17,16,34,29.30
2009,07,17,16,35,29.30
2009,07,17,16,36,29.30
2009,07,17,16,37,29.40
2009,07,17,16,38,29.50
2009,07,17,16,39,29.50
2009,07,17,16,40,29.50
2009,07,17,16,41,29.40
2009,07,17,16,42,29.30
2009,07,17,16,43,29.20
2009,07,17,16,44,29.20
2009,07,17,16,45,29.20
2009,07,17,16,46,29.30
2009,07,17,16,47,29.50
2009,07,17,16,48,29.70
2009,07,17,16,49,29.90
2009,07,17,16,50,30.00
2009,07,17,16,51,30.20
2009,07,17,16,52,30.30
2009,07,17,16,53,30.30
2009,07,17,16,54,30.20
2009,07,17,16,55,30.20
2009,07,17,16,56,30.20
2009,07,17,16,57,30.20
2009,07,17,16,58,30.20
2009,07,17,16,59,30.20
2009,07,17,17,00,30.30
2009,07,17,17,01,30.40
2009,07,17,17,02,30.60
2009,07,17,17,03,30.60
2009,07,17,17,04,30.70
2009,07,17,17,05,30.80
2009,07,17,17,06,30.70
2009,07,17,17,07,30.60
2009,07,17,17,08,30.50
2009,07,17,17,09,30.40
2009,07,17,17,10,30.30
2009,07,17,17,11,30.30
2009,07,17,17,12,30.30
2009,07,17,17,13,30.30
2009,07,17,17,14,30.40
2009,07,17,17,15,30.40
2009,07,17,17,16,30.50
2009,07,17,17,17,30.60
2009,07,17,17,18,30.70
2009,07,17,17,19,30.80
2009,07,17,17,20,30.80
2009,07,17,17,21,30.80
2009,07,17,17,22,30.90
2009,07,17,17,23,31.00
2009,07,17,17,24,30.90
2009,07,17,17,25,30.90
2009,07,17,17,26,30.90
2009,07,17,17,27,30.80
2009,07,17,17,28,30.70
2009,07,17,17,29,30.80
2009,07,17,17,30,30.70
2009,07,17,17,31,30.60
2009,07,17,17,32,30.50
2009,07,17,17,33,30.50
2009,07,17,17,34,30.50
2009,07,17,17,35,30.50
2009,07,17,17,36,30.40
2009,07,17,17,37,30.40
2009,07,17,17,38,30.40
2009,07,17,17,39,30.40
2009,07,17,17,40,30.40
2009,07,17,17,41,30.50
2009,07,17,17,42,30.60
2009,07,17,17,43,30.60
2009,07,17,17,44,30.70
2009,07,17,17,45,30.80
2009,07,17,17,46,30.70
2009,07,17,17,47,30.70
2009,07,17,17,48,30.70
2009,07,17,17,49,30.80
2009,07,17,17,50,30.70
2009,07,17,17,51,30.70
2009,07,17,17,52,30.70
2009,07,17,17,53,30.60
2009,07,17,17,54,30.50
2009,07,17,17,55,30.40
2009,07,17,17,56,30.40
2009,07,17,17,57,30.40
2009,07,17,17,58,30.40
2009,07,17,17,59,30.30
2009,07,17,18,00,30.20
2009,07,17,18,01,30.20
2009,07,17,18,02,30.20
2009,07,17,18,03,30.20
2009,07,17,18,04,30.20
2009,07,17,18,05,30.10
2009,07,17,18,06,30.10
2009,07,17,18,07,30.00
2009,07,17,18,08,30.00
2009,07,17,18,09,30.00
2009,07,17,18,10,29.90
2009,07,17,18,11,29.90
2009,07,17,18,12,29.90
2009,07,17,18,13,29.80
2009,07,17,18,14,29.70
2009,07,17,18,15,29.70
2009,07,17,18,16,29.70
2009,07,17,18,17,29.70
2009,07,17,18,18,29.70
2009,07,17,18,19,29.70
2009,07,17,18,20,29.60
2009,07,17,18,21,29.50
2009,07,17,18,22,29.50
2009,07,17,18,23,29.40
2009,07,17,18,24,29.30
2009,07,17,18,25,29.40
2009,07,17,18,26,29.50
2009,07,17,18,27,29.60
2009,07,17,18,28,29.60
2009,07,17,18,29,29.60
2009,07,17,18,30,29.60
2009,07,17,18,31,29.50
2009,07,17,18,32,29.50
2009,07,17,18,33,29.50
2009,07,17,18,34,29.40
2009,07,17,18,35,29.30
2009,07,17,18,36,29.30
2009,07,17,18,37,29.30
2009,07,17,18,38,29.30
2009,07,17,18,39,29.30
2009,07,17,18,40,29.30
2009,07,17,18,41,29.30
2009,07,17,18,42,29.20
2009,07,17,18,43,29.10
2009,07,17,18,44,29.00
2009,07,17,18,45,28.90
2009,07,17,18,46,28.90
2009,07,17,18,47,28.90
2009,07,17,18,48,28.90
2009,07,17,18,49,28.90
2009,07,17,18,50,28.90
2009,07,17,18,51,29.00
2009,07,17,18,52,29.00
2009,07,17,18,53,28.90
2009,07,17,18,54,28.80
2009,07,17,18,55,28.70
2009,07,17,18,56,28.70
2009,07,17,18,57,28.70
2009,07,17,18,58,28.70
2009,07,17,18,59,28.80
2009,07,17,19,00,28.80
2009,07,17,19,01,28.90
2009,07,17,19,02,28.80
2009,07,17,19,03,28.90
2009,07,17,19,04,28.90
2009,07,17,19,05,28.90
2009,07,17,19,06,28.90
2009,07,17,19,07,29.00
2009,07,17,19,08,29.00
2009,07,17,19,09,29.00
2009,07,17,19,10,29.10
2009,07,17,19,11,29.10
2009,07,17,19,12,29.00
2009,07,17,19,13,29.00
2009,07,17,19,14,28.90
2009,07,17,19,15,28.80
2009,07,17,19,16,28.80
2009,07,17,19,17,28.80
2009,07,17,19,18,28.80
2009,07,17,19,19,28.80
2009,07,17,19,20,28.70
2009,07,17,19,21,28.70
2009,07,17,19,22,28.70
2009,07,17,19,23,28.70
2009,07,17,19,24,28.70
2009,07,17,19,25,28.70
2009,07,17,19,26,28.70
2009,07,17,19,27,28.70
2009,07,17,19,28,28.70
2009,07,17,19,29,28.70
2009,07,17,19,30,28.70
2009,07,17,19,31,28.70
2009,07,17,19,32,28.70
2009,07,17,19,33,28.70
2009,07,17,19,34,28.60
2009,07,17,19,35,28.60
2009,07,17,19,36,28.60
2009,07,17,19,37,28.60
2009,07,17,19,38,28.60
2009,07,17,19,39,28.60
2009,07,17,19,40,28.60
2009,07,17,19,41,28.60
2009,07,17,19,42,28.50
2009,07,17,19,43,28.50
2009,07,17,19,44,28.50
2009,07,17,19,45,28.50
2009,07,17,19,46,28.40
2009,07,17,19,47,28.40
2009,07,17,19,48,28.40
2009,07,17,19,49,28.40
2009,07,17,19,50,28.40
2009,07,17,19,51,28.40
2009,07,17,19,52,28.40
2009,07,17,19,53,28.40
2009,07,17,19,54,28.30
2009,07,17,19,55,28.40
2009,07,17,19,56,28.40
2009,07,17,19,57,28.40
2009,07,17,19,58,28.40
2009,07,17,19,59,28.40
2009,07,17,20,00,28.30
2009,07,17,20,01,28.30
2009,07,17,20,02,28.30
2009,07,17,20,03,28.30
2009,07,17,20,04,28.30
2009,07,17,20,05,28.30
2009,07,17,20,06,28.30
2009,07,17,20,07,28.30
2009,07,17,20,08,28.30
2009,07,17,20,09,28.30
2009,07,17,20,10,28.30
2009,07,17,20,11,28.20
2009,07,17,20,12,28.20
2009,07,17,20,13,28.10
2009,07,17,20,14,28.10
2009,07,17,20,15,28.10
2009,07,17,20,16,28.00
2009,07,17,20,17,28.00
2009,07,17,20,18,28.00
2009,07,17,20,19,28.00
2009,07,17,20,20,28.00
2009,07,17,20,21,27.90
2009,07,17,20,22,27.90
2009,07,17,20,23,27.80
2009,07,17,20,24,27.80
2009,07,17,20,25,27.70
2009,07,17,20,26,27.60
2009,07,17,20,27,27.60
2009,07,17,20,28,27.50
2009,07,17,20,29,27.40
2009,07,17,20,30,27.40
2009,07,17,20,31,27.30
2009,07,17,20,32,27.30
2009,07,17,20,33,27.20
2009,07,17,20,34,27.20
2009,07,17,20,35,27.20
2009,07,17,20,36,27.10
2009,07,17,20,37,27.10
2009,07,17,20,38,27.00
2009,07,17,20,39,27.00
2009,07,17,20,40,26.90
2009,07,17,20,41,26.90
2009,07,17,20,42,26.80
2009,07,17,20,43,26.80
2009,07,17,20,44,26.80
2009,07,17,20,45,26.80
2009,07,17,20,46,26.70
2009,07,17,20,47,26.70
2009,07,17,20,48,26.70
2009,07,17,20,49,26.60
2009,07,17,20,50,26.60
2009,07,17,20,51,26.50
2009,07,17,20,52,26.40
2009,07,17,20,53,26.40
2009,07,17,20,54,26.30
2009,07,17,20,55,26.20
2009,07,17,20,56,26.10
2009,07,17,20,57,26.00
2009,07,17,20,58,25.90
2009,07,17,20,59,25.90
2009,07,17,21,00,25.90
2009,07,17,21,01,25.80
2009,07,17,21,02,25.70
2009,07,17,21,03,25.60
2009,07,17,21,04,25.60
2009,07,17,21,05,25.50
2009,07,17,21,06,25.50
2009,07,17,21,07,25.40
2009,07,17,21,08,25.40